GW3294 Weather Reports


Display with metric or nautical units.
time (UTC)temp
F
wind
direction
speed
MPH
gust
MPH
rain 1hr
in
rain 24hr
in
rain mn
in
humidity
%
barometer
mb
20260506051244 46 129 2.0 3.0 0.02 0.00 0.00 99 1015.2
20260506050742 46 71 1.0 2.0 0.02 0.00 0.00 99 1015.1
20260506050239 46 106 0.0 2.0 0.00 0.00 0.00 99 1015.0
20260506044730 46 89 1.0 2.0 0.02 0.58 0.58 99 1014.7
20260506044227 46 68 0.0 1.0 0.00 0.57 0.57 99 1014.8
20260506043724 46 103 0.0 2.0 0.02 0.57 0.57 99 1014.6
20260506043222 46 118 0.0 3.0 0.02 0.57 0.57 99 1014.8
20260506042720 46 54 2.0 3.0 0.00 0.57 0.57 99 1014.8
20260506042218 46 99 2.0 2.0 0.00 0.57 0.57 99 1015.2
20260506041716 46 124 0.0 1.0 0.00 0.57 0.57 99 1015.2
20260506041213 46 104 2.0 3.0 0.00 0.57 0.57 99 1015.2
20260506040711 46 89 1.0 2.0 0.00 0.57 0.57 99 1015.1
20260506040207 46 114 2.0 3.0 0.00 0.57 0.57 99 1015.0
20260506035704 46 129 0.0 3.0 0.00 0.57 0.57 99 1015.4
20260506035201 45 62 1.0 3.0 0.02 0.57 0.57 99 1015.2
20260506034658 46 112 2.0 3.0 0.00 0.57 0.57 99 1015.6
20260506034155 45 118 1.0 2.0 0.00 0.57 0.57 99 1015.5
20260506033652 45 108 1.0 2.0 0.00 0.57 0.57 99 1015.6
20260506033149 45 84 1.0 2.0 0.00 0.57 0.57 99 1015.7
20260506032646 45 113 0.0 2.0 0.00 0.57 0.57 99 1015.4
20260506032143 45 129 0.0 1.0 0.00 0.57 0.57 99 1015.0
20260506031640 45 80 0.0 2.0 0.00 0.57 0.57 99 1014.9
20260506031136 45 92 1.0 3.0 0.00 0.57 0.57 99 1014.7
20260506030635 45 132 0.0 1.0 0.00 0.57 0.57 99 1014.8
20260506030127 45 104 1.0 2.0 0.00 0.57 0.57 99 1014.6
20260506025623 45 94 0.0 2.0 0.00 0.57 0.57 99 1014.5
20260506025119 46 111 0.0 2.0 0.00 0.57 0.57 99 1014.2
20260506024617 45 104 1.0 2.0 0.00 0.57 0.57 99 1014.2
20260506024113 45 125 0.0 2.0 0.00 0.57 0.57 99 1014.4
20260506023610 45 107 2.0 3.0 0.00 0.57 0.57 99 1014.3
20260506023107 45 118 0.0 2.0 0.00 0.57 0.57 99 1014.8
20260506022604 45 135 0.0 2.0 0.00 0.57 0.57 99 1014.7
20260506022102 45 122 2.0 2.0 0.00 0.57 0.57 99 1014.3
20260506021559 45 122 2.0 2.0 0.02 0.57 0.57 99 1014.5
20260506021056 45 103 0.0 2.0 0.05 0.57 0.57 99 1014.5
20260506020553 45 94 1.0 1.0 0.09 0.56 0.56 99 1014.6
20260506020051 45 98 2.0 2.0 0.09 0.56 0.56 99 1014.6
20260506015548 45 119 0.0 4.0 0.09 0.55 0.55 99 1014.4
20260506015045 45 100 0.0 3.0 0.07 0.54 0.54 99 1014.5
20260506014543 45 142 0.0 3.0 0.05 0.53 0.53 99 1014.6
20260506014038 45 69 1.0 2.0 0.07 0.53 0.53 99 1014.4
20260506013536 45 106 0.0 2.0 0.07 0.52 0.52 99 1014.6
20260506013033 45 124 0.0 2.0 0.09 0.52 0.52 98 1013.7
20260506012529 45 98 4.0 4.0 0.12 0.51 0.51 98 1014.6
20260506012026 45 100 2.0 2.0 0.07 0.50 0.50 98 1014.4
20260506011524 45 145 3.0 3.0 0.02 0.48 0.48 98 1014.0
20260506011019 45 80 0.0 3.0 0.05 0.48 0.48 98 1013.6
20260506010513 45 113 2.0 4.0 0.05 0.48 0.48 98 1013.6
20260506010009 45 132 0.0 2.0 0.12 0.48 0.48 98 1013.8
20260506005507 45 111 1.0 3.0 0.19 0.47 0.47 98 1013.6
20260506005002 46 158 0.0 4.0 0.26 0.46 0.46 98 1013.7
20260506004500 46 150 1.0 5.0 0.19 0.43 0.43 98 1013.7
20260506003955 46 153 2.0 3.0 0.05 0.41 0.41 98 1014.0
20260506003452 46 142 2.0 3.0 0.02 0.40 0.40 98 1013.5
20260506002948 46 77 0.0 5.0 0.00 0.40 0.40 98 1013.5
20260506002445 46 121 0.0 4.0 0.02 0.40 0.40 98 1013.5
20260506001940 46 191 0.0 3.0 0.02 0.40 0.40 98 1013.5
20260506001438 46 225 0.0 3.0 0.00 0.39 0.39 98 1013.2
20260506000935 46 154 0.0 3.0 0.02 0.39 0.39 98 1013.1
20260506000432 46 147 2.0 3.0 0.02 0.39 0.39 98 1013.4
20260505235929 47 111 2.0 4.0 0.05 0.39 0.39 98 1013.0
20260505235427 47 135 0.0 3.0 0.05 0.39 0.39 97 1013.3
20260505234924 46 89 0.0 4.0 0.05 0.38 0.38 97 1012.9
20260505234421 47 231 1.0 3.0 0.07 0.38 0.38 97 1013.0
20260505233918 47 145 2.0 5.0 0.07 0.37 0.37 97 1012.8
20260505233416 47 126 2.0 3.0 0.07 0.37 0.37 97 1012.7
20260505232913 47 125 3.0 4.0 0.26 0.36 0.36 97 1012.4
20260505232411 47 113 3.0 5.0 0.35 0.35 0.35 96 1013.1
20260505231907 47 123 4.0 5.0 0.19 0.32 0.32 96 1012.9
20260505231405 47 138 1.0 10.0 0.02 0.29 0.29 96 1013.0
20260505230903 48 78 0.0 5.0 0.00 0.28 0.28 96 1012.3
20260505230400 48 113 3.0 3.0 0.00 0.28 0.28 95 1012.5
20260505225856 48 160 0.0 3.0 0.00 0.28 0.28 95 1012.5
20260505225354 48 123 2.0 3.0 0.00 0.28 0.28 95 1012.5
20260505224849 48 155 0.0 1.0 0.02 0.28 0.28 95 1012.5
20260505224347 48 117 1.0 1.0 0.07 0.28 0.28 95 1012.4
20260505223843 48 67 1.0 7.0 0.09 0.28 0.28 94 1012.1
20260505223340 48 112 2.0 4.0 0.07 0.27 0.27 94 1012.1
20260505222836 49 157 0.0 3.0 0.00 0.26 0.26 93 1011.9
20260505222333 49 128 2.0 2.0 0.00 0.26 0.26 93 1012.2
20260505221830 49 92 2.0 3.0 0.00 0.26 0.26 93 1012.2
20260505221326 49 157 0.0 2.0 0.00 0.26 0.26 94 1012.6
20260505220823 48 107 0.0 4.0 0.00 0.26 0.26 94 1012.2
20260505220320 48 108 2.0 3.0 0.00 0.26 0.26 93 1012.1
20260505215818 49 111 2.0 3.0 0.00 0.26 0.26 94 1012.2
20260505215316 49 83 0.0 3.0 0.00 0.26 0.26 94 1012.2
20260505214814 49 71 2.0 3.0 0.00 0.26 0.26 93 1012.2
20260505214311 49 110 1.0 2.0 0.00 0.26 0.26 94 1012.4
20260505213808 49 65 2.0 3.0 0.00 0.26 0.26 94 1012.5
20260505213306 48 195 0.0 2.0 0.00 0.26 0.26 94 1012.6
20260505212801 48 89 1.0 7.0 0.00 0.26 0.26 94 1012.4
20260505212259 49 177 0.0 3.0 0.00 0.26 0.26 94 1012.3
20260505211755 49 85 2.0 4.0 0.00 0.26 0.26 94 1011.9
20260505211253 48 72 2.0 6.0 0.00 0.26 0.26 93 1012.6
20260505210749 48 99 3.0 3.0 0.05 0.26 0.26 93 1012.7
20260505210246 48 124 2.0 4.0 0.05 0.26 0.26 92 1013.0
20260505205743 48 113 2.0 2.0 0.00 0.25 0.25 92 1013.0
20260505205242 49 151 2.0 6.0 0.00 0.25 0.25 92 1012.9
20260505204738 49 121 1.0 4.0 0.02 0.25 0.25 91 1013.1
20260505204236 49 82 2.0 4.0 0.02 0.25 0.25 90 1013.2
20260505203733 49 191 0.0 4.0 0.00 0.24 0.24 90 1013.0
20260505203229 49 147 0.0 5.0 0.00 0.24 0.24 89 1013.0
20260505202725 49 131 0.0 5.0 0.00 0.24 0.24 90 1013.0
20260505202221 49 93 3.0 5.0 0.00 0.24 0.24 90 1013.0
20260505201718 49 140 1.0 4.0 0.00 0.24 0.24 89 1013.0
20260505201216 49 126 0.0 4.0 0.00 0.24 0.24 91 1012.5
20260505200714 49 114 3.0 6.0 0.00 0.24 0.24 90 1013.2
20260505200211 49 110 3.0 5.0 0.00 0.24 0.24 88 1013.4
20260505195706 50 288 0.0 3.0 0.00 0.24 0.24 89 1013.4
20260505195204 49 98 2.0 8.0 0.00 0.24 0.24 88 1013.1
20260505194701 49 100 3.0 4.0 0.00 0.24 0.24 88 1013.2
20260505194157 49 138 1.0 9.0 0.00 0.24 0.24 87 1013.3
20260505193653 50 112 4.0 8.0 0.00 0.24 0.24 87 1013.6
20260505193151 50 125 5.0 5.0 0.00 0.24 0.24 86 1013.3
20260505192649 50 52 1.0 5.0 0.00 0.24 0.24 85 1013.4
20260505192146 50 119 1.0 5.0 0.00 0.24 0.24 85 1013.3
20260505191644 50 120 3.0 5.0 0.00 0.24 0.24 85 1013.2
20260505191143 50 110 3.0 6.0 0.00 0.24 0.24 84 1012.8
20260505190638 51 173 1.0 8.0 0.00 0.24 0.24 85 1012.9
20260505190138 51 168 3.0 6.0 0.00 0.24 0.24 85 1012.9
20260505185635 52 24 2.0 6.0 0.00 0.24 0.24 87 1012.8
20260505185132 52 159 4.0 5.0 0.00 0.24 0.24 85 1012.8
20260505184628 52 104 2.0 6.0 0.00 0.24 0.24 88 1012.7
20260505184125 52 137 1.0 5.0 0.00 0.24 0.24 88 1012.7
20260505183622 52 116 0.0 3.0 0.00 0.24 0.24 89 1012.9
20260505183120 53 109 3.0 4.0 0.00 0.24 0.24 89 1013.3
20260505182616 52 190 0.0 2.0 0.00 0.24 0.24 89 1013.2
20260505182113 52 148 3.0 4.0 0.00 0.24 0.24 90 1012.7
20260505181609 52 91 0.0 6.0 0.00 0.24 0.24 88 1012.9
20260505181107 52 133 0.0 2.0 0.00 0.24 0.24 88 1013.4
20260505180602 52 124 2.0 4.0 0.00 0.24 0.24 89 1013.5
20260505180100 53 114 2.0 3.0 0.00 0.24 0.24 87 1013.6
20260505175555 52 108 2.0 8.0 0.00 0.24 0.24 86 1013.5
20260505175052 52 123 1.0 5.0 0.00 0.24 0.24 89 1013.4
20260505174550 53 113 0.0 9.0 0.00 0.24 0.24 88 1013.4
20260505174045 53 146 3.0 7.0 0.00 0.24 0.24 88 1013.5
20260505173537 54 135 0.0 3.0 0.00 0.24 0.24 89 1013.5
20260505173033 55 119 0.0 2.0 0.00 0.24 0.24 89 1013.3
20260505172531 55 135 1.0 2.0 0.00 0.24 0.24 89 1013.1
20260505172027 55 116 0.0 3.0 0.00 0.24 0.24 88 1013.3
20260505171522 54 114 0.0 2.0 0.00 0.24 0.24 89 1013.2
20260505171020 54 220 0.0 2.0 0.00 0.24 0.24 90 1013.6
20260505170516 54 236 1.0 2.0 0.00 0.24 0.24 90 1013.0
20260505170013 54 57 0.0 1.0 0.02 0.24 0.24 88 1013.0
20260505165508 55 256 0.0 2.0 0.02 0.24 0.24 86 1012.9
20260505165004 55 111 1.0 2.0 0.00 0.24 0.24 85 1012.7
20260505164500 56 147 2.0 2.0 0.00 0.24 0.24 85 1012.4
20260505163958 56 272 1.0 4.0 0.00 0.24 0.24 79 1012.4
20260505163457 57 100 1.0 2.0 0.00 0.24 0.24 78 1012.7
20260505162956 57 65 2.0 2.0 0.00 0.24 0.24 81 1012.6
20260505162451 57 70 0.0 2.0 0.00 0.24 0.24 77 1012.7
20260505161948 57 56 1.0 3.0 0.00 0.24 0.24 79 1012.6
20260505161445 56 118 2.0 3.0 0.00 0.24 0.24 82 1012.4
20260505160942 56 216 2.0 3.0 0.00 0.24 0.24 78 1012.7
20260505160440 56 104 3.0 4.0 0.00 0.24 0.24 79 1012.8
20260505152916 56 37 2.0 7.0 0.00 0.24 0.24 80 1012.1
20260505152413 56 119 3.0 5.0 0.00 0.24 0.24 82 1012.2
20260505151908 56 106 2.0 7.0 0.00 0.24 0.24 81 1011.9
20260505151404 56 288 1.0 3.0 0.00 0.24 0.24 87 1012.1
20260505150901 55 272 0.0 3.0 0.00 0.24 0.24 88 1012.2
20260505150358 55 354 0.0 4.0 0.00 0.24 0.24 92 1012.0
20260505140317 51 52 2.0 4.0 0.00 0.24 0.24 98 1011.9
20260505130240 48 125 4.0 7.0 0.17 0.23 0.23 97 1010.7
20260505124731 49 116 3.0 5.0 0.17 0.19 0.19 96 1013.1
20260505124228 49 137 1.0 4.0 0.17 0.18 0.18 96 1012.9
20260505123723 49 79 0.0 5.0 0.14 0.17 0.17 96 1013.0
20260505123220 49 96 2.0 4.0 0.05 0.15 0.15 96 1012.6
20260505122717 49 123 3.0 7.0 0.00 0.14 0.14 96 1012.5
20260505122214 50 137 2.0 4.0 0.00 0.14 0.14 96 1012.5
20260505121710 50 148 1.0 8.0 0.00 0.14 0.14 96 1012.0
20260505121207 50 131 2.0 7.0 0.00 0.14 0.14 96 1012.2
20260505120704 50 117 3.0 6.0 0.02 0.14 0.14 96 1012.0
20260505120159 51 135 5.0 8.0 0.07 0.14 0.14 96 1011.8
20260505115653 51 137 3.0 8.0 0.24 0.14 0.14 95 1011.7
20260505115151 51 272 1.0 4.0 0.40 0.13 0.13 95 1011.7
20260505114648 52 143 4.0 6.0 0.26 0.09 0.09 94 1011.3
20260505114144 52 87 3.0 5.0 0.05 0.06 0.06 94 1012.1
20260505113641 52 148 2.0 4.0 0.00 0.05 0.05 94 1011.5
20260505113137 53 99 0.0 5.0 0.00 0.05 0.05 94 1011.0
20260505112633 53 92 1.0 3.0 0.00 0.05 0.05 93 1010.9
20260505112132 53 115 3.0 4.0 0.00 0.05 0.05 92 1010.5
20260505111625 53 88 2.0 3.0 0.00 0.05 0.05 92 1010.5
20260505111122 53 170 0.0 2.0 0.00 0.05 0.05 92 1010.2
20260505110618 53 149 2.0 4.0 0.05 0.05 0.05 91 1010.1
20260505110115 54 183 0.0 4.0 0.24 0.05 0.05 90 1009.9
20260505102051 58 119 2.0 5.0 0.00 0.01 0.01 91 1009.6
20260505101549 59 65 1.0 7.0 0.00 0.01 0.01 91 1009.6
20260505101045 59 10 0.0 5.0 0.00 0.01 0.01 91 1009.2
20260505100542 59 157 2.0 3.0 0.00 0.01 0.01 90 1009.3
20260505100039 60 144 0.0 7.0 0.00 0.01 0.01 90 1009.1
20260505095535 60 110 2.0 5.0 0.05 0.01 0.01 88 1009.1
20260505095032 61 130 3.0 5.0 0.05 0.01 0.01 85 1009.3
20260505094528 62 192 3.0 5.0 0.00 0.00 0.00 83 1008.9
20260505094025 61 165 0.0 5.0 0.00 0.00 0.00 87 1008.9
20260505093521 62 156 3.0 4.0 0.00 0.00 0.00 85 1008.7
20260505093019 62 289 2.0 2.0 0.00 0.00 0.00 83 1008.3
20260505092516 62 103 0.0 1.0 0.00 0.00 0.00 88 1008.1
20260505092014 62 114 2.0 2.0 0.00 0.00 0.00 86 1008.1
20260505091511 62 66 0.0 1.0 0.00 0.00 0.00 87 1007.9
20260505091009 62 95 0.0 2.0 0.00 0.00 0.00 87 1008.3
20260505090506 62 104 1.0 2.0 0.00 0.00 0.00 88 1008.1
20260505090004 62 126 0.0 2.0 0.00 0.00 0.00 87 1008.2
20260505085502 62 37 0.0 1.0 0.00 0.00 0.00 86 1008.0
20260505085000 62 131 0.0 1.0 0.00 0.00 0.00 87 1008.0
20260505084458 62 25 0.0 1.0 0.00 0.00 0.00 87 1007.8
20260505083955 62 135 0.0 2.0 0.00 0.00 0.00 87 1008.0
20260505083452 62 100 0.0 2.0 0.00 0.00 0.00 85 1008.1
20260505082949 62 129 0.0 1.0 0.00 0.00 0.00 84 1008.1
20260505082444 62 118 2.0 2.0 0.00 0.00 0.00 84 1008.2
20260505081942 63 38 0.0 1.0 0.00 0.00 0.00 82 1008.1
20260505081438 63 48 0.0 2.0 0.00 0.00 0.00 81 1008.2
20260505080935 64 357 0.0 2.0 0.00 0.00 0.00 78 1008.3
20260505080431 65 141 0.0 0.0 0.00 0.00 0.00 77 1008.4
20260505075926 65 123 0.0 3.0 0.00 0.00 0.00 74 1008.2
20260505075424 65 64 0.0 2.0 0.00 0.00 0.00 69 1008.7
20260505074921 65 50 0.0 1.0 0.00 0.00 0.00 69 1008.7
20260505074418 66 142 0.0 1.0 0.00 0.00 0.00 71 1008.8
20260505073915 66 108 2.0 2.0 0.00 0.00 0.00 69 1008.6
20260505073413 66 63 0.0 2.0 0.00 0.00 0.00 68 1008.6
20260505072910 66 129 3.0 3.0 0.00 0.00 0.00 69 1008.4
20260505072406 66 112 1.0 3.0 0.00 0.00 0.00 67 1008.6
20260505071902 66 123 1.0 3.0 0.00 0.00 0.00 68 1008.5
20260505071358 66 176 0.0 3.0 0.00 0.00 0.00 68 1008.6
20260505070857 67 143 3.0 6.0 0.00 0.00 0.00 68 1008.5
20260505070353 67 98 0.0 3.0 0.00 0.00 0.00 67 1008.8
20260505065848 67 109 2.0 8.0 0.00 0.00 0.00 68 1008.8
20260505065345 69 89 3.0 4.0 0.00 0.00 0.00 67 1008.6
20260505064842 69 27 1.0 2.0 0.00 0.00 0.00 63 1007.8
20260505064339 69 198 2.0 3.0 0.00 0.00 0.00 63 1007.5
20260505063838 69 149 2.0 4.0 0.00 0.00 0.00 63 1007.6
20260505063333 69 157 1.0 4.0 0.00 0.00 0.00 63 1007.4
20260505062830 69 123 2.0 4.0 0.00 0.00 0.00 63 1007.5
20260505062327 69 231 2.0 3.0 0.00 0.00 0.00 63 1007.7
20260505061824 69 179 0.0 9.0 0.00 0.00 0.00 62 1007.7
20260505061322 69 165 2.0 7.0 0.00 0.00 0.00 63 1007.5
20260505060820 69 89 0.0 6.0 0.00 0.00 0.00 63 1007.3
20260505060316 69 133 3.0 4.0 0.00 0.00 0.00 63 1007.4
20260505055812 69 134 1.0 3.0 0.00 0.00 0.00 64 1007.2
20260505055308 69 172 3.0 4.0 0.00 0.00 0.00 64 1007.1
20260505054806 70 178 1.0 5.0 0.00 0.00 0.00 62 1007.1
20260505054303 69 231 0.0 5.0 0.00 0.00 0.00 62 1007.0
20260505053801 70 173 1.0 3.0 0.00 0.00 0.00 62 1006.8
20260505053258 70 168 3.0 4.0 0.00 0.00 0.00 61 1007.0